Wind_Speed
10 11 10 9 8 8 9 9 8 9 10 12 14 17 20 24 21 18 17 20 26 24 25 23 26 26 23 23 19 19 20 19 17 19 18 15 10 8 7 6 9 12 16 14 16 24 23
7 9 9 9 8 8 8 8 9 9 10 12 14 17 20 23 22 21 20 20 24 25 22 23 23 25 26 23 23 20 19 19 18 18 19 13 13 9 3 7 11 13 6 15 15 18 15
6 7 7 7 7 8 8 7 7 8 9 11 13 16 18 20 23 20 20 22 23 26 22 25 18 23 27 25 24 22 21 19 18 17 19 15 13 11 10 3 8 14 12 11 20 20 15
5 5 6 5 6 6 6 6 5 6 6 8 11 14 17 18 19 21 17 19 23 25 24 25 21 22 26 23 24 25 22 20 19 16 19 15 12 11 9 12 10 9 8 14 12 14 20
8 6 5 6 5 5 5 5 4 5 6 7 9 12 14 16 18 19 19 15 19 22 24 25 27 24 25 25 23 23 22 22 16 17 22 16 16 17 12 21 8 6 12 9 3 7 15
9 9 8 7 6 6 5 5 5 4 5 7 8 10 12 15 17 18 20 18 13 17 22 21 25 19 25 24 23 21 22 21 17 21 16 18 18 14 8 15 16 16 13 11 5 4 12
12 11 10 10 9 8 9 7 7 6 7 7 9 10 11 13 15 17 19 20 18 12 15 21 22 23 23 23 25 27 22 21 18 14 14 9 15 15 12 13 12 11 12 6 7 8 6
14 14 13 12 12 12 11 11 10 10 10 9 10 10 12 12 13 15 18 20 21 18 8 16 19 20 20 21 24 26 24 20 19 15 13 15 13 12 12 13 11 10 13 11 4 8 5
15 15 16 15 15 14 14 14 14 13 12 12 12 12 12 13 13 14 16 19 22 19 10 12 19 18 21 18 21 23 24 25 20 17 13 11 14 14 13 13 11 6 9 10 11 13 7
17 17 18 18 17 17 17 17 16 16 15 14 13 14 13 13 13 14 14 17 20 19 4 11 17 17 19 21 18 19 23 20 20 18 11 7 16 14 11 11 13 8 13 9 9 13 10
18 18 19 19 20 20 20 19 19 18 17 17 16 15 15 14 14 14 15 16 18 14 2 14 15 18 17 18 16 21 17 22 22 15 16 16 18 16 15 13 13 11 13 12 9 8 11
19 20 19 21 20 23 21 22 20 21 19 18 18 18 17 16 16 15 15 15 18 7 4 11 16 21 18 18 19 20 21 17 16 18 15 15 16 19 22 12 11 17 17 8 7 5 1
20 19 20 22 23 23 23 21 22 22 22 20 19 19 19 17 17 16 15 16 9 3 9 8 19 21 14 18 17 19 17 13 18 20 19 16 12 18 23 23 9 14 16 5 3 1 2
25 24 21 24 24 24 25 23 21 23 24 23 21 20 20 20 17 18 16 15 7 7 14 15 20 19 13 15 17 18 17 8 15 16 13 10 9 14 17 19 16 15 11 5 3 3 7
32 26 28 27 24 24 27 26 22 24 25 24 22 22 20 20 18 18 17 14 7 10 12 19 20 12 8 16 17 16 14 10 13 14 14 8 10 14 17 16 12 11 9 8 5 9 6
31 32 28 22 24 27 33 30 29 27 25 24 23 22 21 21 18 17 18 18 16 16 18 18 14 9 11 13 14 16 8 10 15 13 19 12 10 8 19 13 9 10 9 7 6 5 4
23 23 28 28 27 24 27 28 26 26 26 23 22 21 20 20 17 17 17 18 18 20 16 14 16 18 13 14 14 18 7 13 8 17 18 14 11 17 18 11 16 11 4 5 7 8 2
33 35 26 25 25 22 24 28 24 28 27 23 22 20 16 16 17 18 20 23 21 21 18 17 17 14 12 13 19 17 12 10 19 17 15 11 11 13 22 15 11 7 9 8 4 6 13
29 23 17 20 25 23 26 26 24 25 26 22 20 18 20 19 20 21 20 19 20 21 18 11 10 19 17 17 15 6 16 19 20 16 11 15 7 13 4 7 7 11 14 14 15 14 19
34 25 20 21 26 27 27 27 25 23 22 19 18 17 20 19 19 19 18 17 15 10 14 19 20 19 18 20 17 14 17 15 18 20 19 20 20 17 17 24 26 31 33 29 20 19 23
33 29 25 22 24 22 23 24 21 21 22 20 19 19 17 15 16 17 18 18 22 23 21 19 21 19 16 19 18 17 14 16 20 25 25 20 24 21 31 28 31 34 33 30 27 29 26
30 25 24 23 24 25 24 25 21 24 23 21 19 18 19 18 19 20 18 19 19 21 20 20 22 17 19 21 19 23 25 28 28 23 26 30 29 22 30 25 25 33 34 34 29 21 28
27 25 19 22 24 26 21 18 18 20 22 21 18 18 19 19 18 17 21 21 21 24 22 19 20 24 25 27 27 28 28 29 30 29 29 30 29 26 29 21 20 29 8 9 12 17 24
15 20 25 25 25 22 17 19 20 18 19 19 17 17 18 18 18 20 21 20 22 24 26 24 26 27 26 27 29 29 30 29 26 20 19 29 30 29 30 27 5 10 11 20 24 26 21
28 29 28 24 23 22 19 18 17 17 16 13 14 16 18 22 21 19 21 24 23 25 27 26 23 24 24 26 33 28 25 20 16 14 14 21 21 14 8 14 22 23 9 8 13 19 35
26 27 24 24 25 27 22 16 16 16 16 17 12 15 20 23 26 25 24 22 27 27 27 25 26 29 32 30 24 11 8 19 8 8 12 16 18 22 12 8 5 6 20 19 22 26 5
25 25 23 22 20 20 19 16 15 16 15 18 22 23 24 26 25 21 22 26 29 31 35 36 35 33 31 31 25 21 23 19 13 14 20 16 16 23 31 21 17 22 26 29 18 13 19
26 22 22 21 20 19 17 15 19 22 21 21 22 22 22 26 25 25 26 28 31 31 34 31 34 28 18 18 11 12 11 11 14 16 12 12 11 15 17 14 12 17 12 13 23 33 32
23 24 23 22 18 18 20 20 18 21 21 20 21 21 25 30 34 32 35 35 34 33 35 35 30 32 24 15 13 14 19 25 29 32 25 29 27 27 26 29 25 30 27 28 30 34 39
Wind_Direction
32 23 25 24 36 37 40 37 43 48 50 42 41 37 35 33 31 29 25 20 18 19 19 20 22 19 14 23 10 5 2 2 2 3 356 355 349 321 316 320 307 265 265 234 267 259 257
25 23 23 25 26 33 41 41 38 38 43 41 37 34 33 34 33 31 27 22 16 18 19 18 22 22 25 22 11 10 8 7 12 9 1 358 340 332 349 318 291 259 244 252 241 269 254
359 11 15 25 24 28 26 29 42 35 35 39 38 32 31 28 29 30 30 29 24 20 22 17 16 22 31 20 15 13 18 14 11 12 6 2 4 356 333 308 279 299 259 276 238 237 247
326 345 351 3 8 11 20 19 24 35 28 27 29 29 25 24 24 26 25 31 31 28 26 22 19 19 29 18 15 16 15 12 10 13 20 24 35 26 2 348 315 316 304 278 267 226 233
305 314 322 327 337 344 354 359 8 5 1 16 17 19 19 15 18 17 20 18 28 30 28 26 24 19 17 11 12 10 9 14 13 23 30 22 14 15 4 3 8 253 333 265 198 241 206
288 295 299 302 302 310 319 325 330 335 331 341 355 5 8 8 8 10 11 13 6 20 26 25 25 28 14 15 12 10 11 5 19 24 8 7 3 348 3 12 359 346 350 352 29 152 228
280 279 281 286 286 285 295 301 306 311 313 319 329 341 354 356 359 1 1 5 3 358 11 21 22 24 20 24 20 22 12 9 23 21 9 349 358 6 2 11 0 340 338 7 352 330 261
271 276 279 279 277 281 279 288 297 303 307 310 316 323 330 341 347 349 353 356 359 351 338 6 11 14 18 19 23 24 20 16 24 21 35 23 348 354 7 359 340 344 14 7 6 342 309
273 277 279 279 277 274 275 278 286 295 301 308 311 314 318 325 333 339 345 350 350 347 331 357 3 4 5 7 18 21 22 26 31 25 29 13 5 16 9 351 6 358 360 348 335 338 298
274 276 276 277 276 275 273 273 274 282 291 300 307 309 314 316 321 329 339 344 346 342 321 350 353 358 357 3 10 12 19 20 28 21 24 359 360 10 13 358 1 16 341 326 332 343 358
273 274 278 277 279 277 276 274 274 275 282 290 300 304 307 312 316 321 331 337 341 339 16 342 351 350 350 359 357 9 3 18 18 15 23 10 8 10 9 358 8 348 344 348 331 331 324
280 279 274 277 276 277 275 277 276 274 273 280 288 297 303 307 309 315 321 329 335 325 277 329 345 345 345 357 357 359 359 14 8 10 2 352 2 9 7 4 2 358 345 313 293 308 304
274 279 282 279 278 277 277 278 279 277 276 274 280 287 293 299 305 308 313 321 324 255 320 315 334 338 334 348 355 355 2 354 358 3 360 360 336 356 7 10 356 3 32 9 333 296 209
274 275 279 282 280 280 278 278 279 279 277 276 278 280 287 293 298 300 306 310 277 290 308 321 327 335 339 346 346 349 0 342 334 2 355 346 331 340 355 4 359 21 23 44 314 354 293
269 278 277 280 279 288 285 280 280 278 278 277 278 282 284 288 295 297 299 296 279 290 305 316 323 329 333 335 333 339 347 312 342 345 12 336 330 338 347 349 10 5 8 348 287 299 281
275 265 271 269 280 280 281 275 276 276 276 277 280 283 284 286 291 293 292 287 286 292 302 310 313 300 302 314 321 327 332 305 327 342 345 328 313 334 338 343 352 359 356 2 342 327 324
283 275 270 271 280 278 281 271 270 276 274 277 282 284 286 289 290 286 284 287 296 299 302 307 301 298 305 303 314 333 307 304 313 327 331 331 330 317 332 329 309 314 339 344 306 273 281
272 278 270 264 267 281 280 267 268 269 277 274 279 283 283 288 289 286 289 294 295 294 297 298 296 300 303 288 306 314 285 283 313 318 321 304 308 300 328 301 300 315 313 294 279 300 287
263 260 260 264 276 283 279 268 269 267 271 274 278 287 286 283 283 287 286 288 288 293 297 291 292 303 308 299 308 287 288 308 310 316 309 306 304 307 301 283 320 315 318 306 298 276 263
260 268 261 258 270 276 275 273 262 272 271 276 279 280 282 283 281 278 280 292 294 295 299 298 300 302 302 301 303 295 296 291 308 311 305 298 288 281 267 285 291 294 293 295 271 262 259
260 253 251 265 267 271 271 275 260 265 272 272 276 276 278 276 277 282 285 286 290 301 300 300 301 306 301 292 293 295 308 304 305 305 301 290 279 289 297 288 293 294 295 298 279 276 255
250 248 253 260 266 275 267 261 257 267 269 266 265 271 269 273 275 278 286 290 297 301 297 301 294 287 287 291 293 284 284 289 292 291 289 286 283 287 297 308 309 301 294 288 292 279 272
241 253 260 275 274 271 273 244 257 261 257 265 265 267 264 267 274 282 284 287 292 290 287 291 288 294 297 296 292 293 295 294 290 285 280 272 277 286 286 297 307 301 349 311 287 287 291
236 246 262 271 272 262 254 250 258 259 257 259 263 264 269 280 281 284 283 286 287 287 289 289 290 293 299 301 298 300 301 301 296 293 280 273 271 273 281 286 238 305 293 288 292 290 299
245 255 263 265 266 255 251 252 256 261 263 258 267 280 286 283 281 287 289 293 292 291 291 293 293 298 301 300 305 310 311 304 299 279 258 264 265 257 252 236 280 306 355 295 318 311 316
235 249 261 267 263 261 251 250 249 249 242 240 259 271 264 271 279 286 287 288 291 293 291 292 292 296 299 298 305 277 282 289 277 268 255 268 261 241 259 255 253 293 301 292 296 310 326
240 250 255 261 259 253 244 235 231 235 243 270 278 288 278 275 276 285 294 296 291 289 289 291 293 295 297 301 288 278 276 285 261 263 267 260 258 243 255 257 272 281 287 293 289 298 303
243 248 255 258 255 248 238 228 238 260 266 275 269 269 278 282 285 284 288 294 293 287 288 291 296 299 294 283 272 280 269 260 263 268 260 264 275 249 255 250 278 260 289 333 295 286 296
239 251 256 250 238 239 240 244 251 262 272 271 267 269 279 287 288 293 291 283 280 276 276 276 271 275 271 269 261 281 269 271 273 281 264 274 273 278 264 272 261 273 288 278 277 278 281
Height
3170 3169 3168 3167 3165 3165 3164 3163 3162 3161 3159 3159 3157 3155 3151 3148 3145 3143 3140 3138 3134 3130 3127 3123 3119 3115 3110 3104 3104 3099 3096 3092 3087 3084 3080 3077 3076 3075 3073 3073 3073 3072 3072 3072 3075 3074 3076
3170 3169 3169 3168 3168 3166 3165 3164 3163 3162 3161 3160 3158 3156 3154 3150 3147 3144 3142 3139 3136 3132 3128 3124 3120 3116 3112 3108 3104 3100 3097 3092 3088 3085 3081 3078 3076 3074 3073 3072 3072 3070 3068 3070 3071 3072 3073
3171 3170 3169 3168 3167 3167 3166 3165 3164 3163 3163 3161 3159 3158 3155 3152 3150 3146 3144 3141 3137 3134 3129 3126 3122 3118 3112 3111 3106 3102 3097 3093 3089 3085 3082 3079 3076 3075 3073 3071 3070 3068 3067 3066 3066 3070 3072
3170 3170 3170 3169 3168 3167 3166 3166 3165 3164 3163 3162 3160 3158 3156 3153 3151 3148 3145 3142 3139 3135 3131 3128 3123 3119 3114 3112 3108 3102 3099 3094 3091 3087 3083 3080 3078 3076 3075 3073 3069 3068 3067 3064 3064 3065 3070
3171 3170 3169 3170 3169 3168 3167 3167 3166 3165 3164 3162 3161 3159 3156 3155 3152 3149 3146 3143 3140 3137 3133 3129 3124 3119 3116 3112 3108 3105 3101 3096 3092 3088 3085 3083 3081 3079 3077 3074 3068 3069 3067 3063 3064 3065 3068
3170 3170 3170 3170 3169 3169 3168 3166 3166 3164 3164 3163 3161 3159 3157 3155 3152 3149 3147 3143 3141 3138 3135 3130 3127 3124 3118 3116 3110 3107 3101 3098 3093 3090 3087 3085 3082 3080 3079 3077 3074 3071 3069 3066 3065 3068 3068
3169 3168 3168 3169 3169 3167 3168 3166 3165 3164 3163 3161 3160 3159 3156 3154 3152 3149 3147 3143 3142 3139 3135 3132 3129 3125 3121 3118 3113 3107 3102 3099 3094 3093 3090 3088 3087 3082 3080 3078 3076 3074 3071 3070 3068 3068 3068
3165 3167 3167 3167 3167 3167 3166 3166 3164 3163 3162 3160 3159 3157 3156 3154 3151 3149 3146 3143 3139 3138 3135 3133 3130 3126 3123 3119 3114 3109 3106 3101 3096 3093 3091 3090 3087 3084 3081 3080 3077 3075 3072 3070 3069 3069 3068
3163 3165 3165 3165 3165 3164 3164 3163 3163 3162 3161 3159 3158 3156 3155 3153 3151 3149 3146 3143 3139 3135 3133 3132 3129 3126 3123 3121 3116 3112 3108 3103 3098 3094 3092 3092 3090 3085 3084 3082 3077 3075 3074 3072 3071 3067 3066
3161 3161 3161 3162 3162 3161 3160 3160 3159 3159 3158 3157 3156 3154 3153 3152 3152 3147 3145 3142 3139 3135 3132 3133 3130 3127 3124 3120 3117 3113 3109 3106 3100 3097 3093 3092 3090 3087 3085 3082 3079 3076 3075 3072 3070 3068 3068
3157 3157 3158 3158 3159 3158 3158 3157 3156 3156 3156 3156 3154 3152 3151 3149 3148 3146 3145 3141 3138 3135 3133 3133 3129 3126 3123 3121 3118 3114 3111 3107 3102 3100 3098 3096 3090 3087 3085 3082 3080 3078 3074 3072 3071 3069 3068
3153 3154 3153 3155 3154 3155 3154 3154 3153 3153 3151 3151 3151 3151 3149 3147 3146 3144 3142 3140 3138 3137 3131 3130 3128 3125 3122 3119 3116 3113 3110 3108 3104 3101 3098 3095 3093 3090 3086 3083 3080 3077 3072 3070 3071 3070 3071
3149 3149 3150 3151 3150 3150 3150 3149 3150 3149 3149 3147 3147 3147 3146 3145 3143 3142 3140 3139 3138 3133 3132 3130 3126 3124 3121 3118 3116 3113 3109 3107 3106 3102 3098 3096 3093 3091 3088 3083 3081 3079 3074 3072 3075 3072 3072
3145 3145 3144 3146 3146 3146 3146 3145 3145 3146 3144 3144 3142 3142 3143 3142 3139 3139 3138 3138 3136 3132 3129 3128 3125 3122 3119 3118 3115 3113 3110 3109 3106 3104 3100 3098 3094 3091 3089 3087 3084 3080 3080 3081 3082 3078 3074
3140 3141 3140 3141 3142 3142 3142 3142 3140 3141 3140 3140 3138 3139 3139 3138 3136 3136 3136 3134 3133 3130 3128 3125 3123 3120 3119 3117 3116 3111 3109 3107 3106 3104 3104 3099 3095 3092 3090 3087 3087 3084 3082 3083 3081 3076 3073
3134 3135 3136 3136 3136 3136 3135 3135 3136 3136 3136 3135 3134 3134 3135 3133 3132 3132 3133 3131 3129 3128 3126 3123 3121 3120 3118 3117 3115 3112 3108 3107 3105 3104 3101 3100 3095 3092 3090 3088 3087 3086 3086 3084 3083 3080 3077
3129 3129 3129 3130 3131 3129 3126 3128 3130 3131 3131 3130 3130 3130 3130 3129 3129 3128 3128 3127 3126 3125 3123 3122 3119 3117 3116 3114 3112 3111 3108 3106 3103 3102 3101 3098 3096 3092 3089 3087 3086 3085 3084 3085 3084 3082 3079
3122 3123 3123 3124 3125 3124 3124 3124 3123 3126 3126 3125 3126 3127 3126 3125 3127 3125 3124 3124 3123 3121 3120 3117 3116 3114 3113 3112 3111 3109 3106 3105 3102 3101 3099 3097 3094 3089 3087 3085 3084 3084 3083 3083 3083 3081 3077
3116 3117 3118 3119 3119 3118 3119 3119 3120 3120 3121 3121 3120 3121 3122 3122 3121 3120 3119 3120 3118 3116 3116 3114 3112 3110 3110 3109 3108 3107 3105 3103 3101 3099 3097 3095 3092 3088 3084 3084 3082 3081 3080 3079 3079 3079 3073
3110 3111 3112 3112 3114 3113 3113 3114 3114 3116 3116 3117 3116 3116 3117 3117 3117 3117 3115 3115 3114 3113 3113 3112 3110 3108 3106 3105 3103 3101 3101 3099 3098 3096 3095 3093 3089 3088 3085 3082 3081 3077 3074 3075 3075 3072 3066
3101 3104 3106 3106 3108 3107 3108 3108 3109 3111 3113 3112 3112 3111 3112 3113 3113 3113 3112 3112 3111 3109 3109 3107 3106 3105 3103 3101 3100 3098 3097 3096 3094 3092 3090 3088 3083 3084 3079 3079 3075 3070 3065 3063 3064 3060 3063
3095 3099 3101 3102 3101 3101 3100 3101 3103 3106 3106 3108 3108 3108 3107 3108 3110 3109 3106 3107 3106 3106 3105 3104 3102 3101 3099 3097 3097 3094 3093 3092 3089 3086 3085 3081 3076 3076 3073 3071 3070 3061 3057 3055 3054 3051 3050
3090 3093 3095 3095 3095 3095 3093 3094 3098 3100 3102 3102 3103 3103 3102 3103 3104 3105 3104 3102 3100 3100 3101 3099 3097 3095 3094 3093 3090 3088 3087 3085 3082 3081 3079 3076 3072 3071 3066 3067 3064 3055 3048 3050 3049 3048 3046
3083 3087 3089 3089 3089 3090 3090 3092 3094 3095 3097 3099 3098 3099 3098 3098 3100 3100 3099 3098 3097 3096 3094 3095 3092 3090 3089 3085 3082 3081 3079 3076 3074 3072 3071 3068 3068 3069 3062 3064 3061 3049 3047 3046 3044 3044 3043
3077 3081 3082 3083 3084 3085 3086 3087 3088 3090 3092 3093 3095 3095 3094 3094 3095 3096 3095 3094 3093 3091 3088 3086 3087 3085 3082 3080 3076 3071 3070 3068 3065 3065 3065 3063 3064 3063 3060 3054 3047 3044 3041 3040 3040 3040 3038
3073 3075 3077 3078 3079 3082 3081 3081 3083 3085 3087 3089 3088 3089 3089 3089 3090 3090 3090 3088 3087 3085 3084 3082 3080 3079 3078 3074 3072 3068 3065 3064 3061 3059 3059 3060 3059 3059 3056 3052 3045 3041 3040 3039 3038 3035 3032
3067 3069 3071 3073 3072 3075 3076 3076 3079 3081 3083 3083 3084 3084 3084 3082 3084 3084 3083 3083 3081 3078 3075 3073 3072 3071 3070 3068 3065 3062 3058 3058 3054 3052 3052 3052 3052 3050 3048 3045 3038 3039 3037 3034 3035 3035 3026
3061 3062 3065 3066 3067 3070 3071 3073 3075 3076 3076 3077 3078 3079 3078 3075 3077 3078 3077 3076 3074 3073 3068 3067 3065 3063 3063 3062 3060 3057 3054 3053 3049 3049 3050 3048 3047 3042 3041 3040 3037 3034 3034 3034 3027 3019 3017
3055 3057 3059 3061 3062 3065 3067 3068 3069 3069 3069 3071 3071 3072 3071 3069 3068 3070 3070 3067 3065 3062 3061 3059 3061 3060 3060 3057 3055 3052 3050 3047 3044 3040 3044 3040 3043 3039 3039 3033 3030 3026 3023 3018 3015 3012 3009